This is the latest recevied weather packets stored in our database for station/object K4HOG. If no packets are shown the sender has not sent any weather packets the latest 10 day(s).
| Time | Temp. | Humidity | Pressure | Rain* | Wind** | Luminosity | Snow |
|---|---|---|---|---|---|---|---|
| 1777693917 | 19.44° C | 94% | 1010.9 hPa | 0 mm | - | 0 W/m² | - |
| 1777693615 | 19.44° C | 94% | 1011 hPa | 0 mm | - | 0 W/m² | - |
| 1777693313 | 19.44° C | 94% | 1011.1 hPa | 0 mm | - | 0 W/m² | - |
| 1777693011 | 19.44° C | 94% | 1011.2 hPa | 0 mm | - | 0 W/m² | - |
| 1777692709 | 20° C | 94% | 1011.2 hPa | 0 mm | - | 0 W/m² | - |
| 1777692405 | 19.44° C | 93% | 1011 hPa | 0 mm | - | 0 W/m² | - |
| 1777692101 | 20° C | 93% | 1011.2 hPa | 0 mm | - | 0 W/m² | - |
| 1777691799 | 20° C | 92% | 1011 hPa | 0 mm | - | 0 W/m² | - |
| 1777691496 | 20° C | 92% | 1011.2 hPa | 0 mm | - | 0 W/m² | - |
| 1777691195 | 20° C | 92% | 1011.1 hPa | 0 mm | - | 0 W/m² | - |
| 1777690893 | 20° C | 92% | 1011.3 hPa | 0 mm | - | 0 W/m² | - |
| 1777690591 | 20.56° C | 92% | 1011.3 hPa | 0 mm | - | 0 W/m² | - |
| 1777690287 | 20.56° C | 92% | 1011.2 hPa | 0 mm | - | 0 W/m² | - |
| 1777689985 | 20.56° C | 91% | 1011.5 hPa | 0 mm | - | 0 W/m² | - |
| 1777689683 | 20.56° C | 91% | 1011.4 hPa | 0 mm | - | 0 W/m² | - |
| 1777689381 | 20.56° C | 90% | 1011.3 hPa | 0 mm | - | 0 W/m² | - |
| 1777689078 | 21.11° C | 90% | 1011.1 hPa | 0 mm | - | 0 W/m² | - |
| 1777688774 | 20.56° C | 90% | 1011.1 hPa | 0 mm | - | 0 W/m² | - |
| 1777688472 | 21.11° C | 89% | 1011.2 hPa | 0 mm | - | 0 W/m² | - |
| 1777688169 | 21.11° C | 89% | 1011.1 hPa | 0 mm | - | 0 W/m² | - |
| 1777687866 | 21.11° C | 88% | 1010.9 hPa | 0 mm | - | 0 W/m² | - |
| 1777687564 | 21.67° C | 88% | 1010.9 hPa | 0 mm | - | 0 W/m² | - |
| 1777687260 | 21.67° C | 88% | 1011.1 hPa | 0 mm | - | 0 W/m² | - |
| 1777686958 | 21.67° C | 87% | 1011.2 hPa | 0 mm | - | 0 W/m² | - |
| 1777686654 | 21.67° C | 87% | 1010.8 hPa | 0 mm | - | 0 W/m² | - |
* Rain latest hour (hover to see other rain measurements)
** Current wind speed in m/s (hover to see current wind gust speed)